| time (UTC) | temp F | wind direction | speed knots | gust knots | rain 1hr in | rain 24hr in | rain mn in | humidity % | barometer mb |
| 20260506113006 | 74 | 133 | 0.0 | 0.0 | 0.00 | 0.00 | 0.00 | 97 | 1007.6 |
| 20260506111506 | 74 | 133 | 0.0 | 0.0 | 0.00 | 0.00 | 0.00 | 97 | 1007.4 |
| 20260506110006 | 75 | 101 | 0.0 | 1.7 | 0.00 | 0.00 | 0.00 | 97 | 1007.3 |
| 20260506104505 | 75 | 224 | 0.0 | 0.9 | 0.00 | 0.00 | 0.00 | 97 | 1007.2 |
| 20260506103006 | 75 | 105 | 0.0 | 0.9 | 0.00 | 0.00 | 0.00 | 97 | 1007.2 |
| 20260506101506 | 74 | 242 | 0.0 | 0.0 | 0.00 | 0.00 | 0.00 | 97 | 1007.3 |
| 20260506100003 | 74 | 223 | 0.0 | 1.7 | 0.00 | 0.00 | 0.00 | 97 | 1007.1 |
| 20260506094505 | 74 | 195 | 0.0 | 0.9 | 0.00 | 0.00 | 0.00 | 97 | 1007.0 |
| 20260506093003 | 74 | 242 | 0.0 | 0.9 | 0.00 | 0.00 | 0.00 | 97 | 1007.1 |
| 20260506091502 | 74 | 232 | 0.0 | 0.0 | 0.00 | 0.00 | 0.00 | 96 | 1007.0 |
| 20260506084623 | 75 | 114 | 0.0 | 1.7 | 0.00 | 0.00 | 0.00 | 96 | 1007.2 |
| 20260506083058 | 75 | 212 | 0.0 | 1.7 | 0.00 | 0.00 | 0.00 | 96 | 1007.2 |
| 20260506081600 | 75 | 105 | 0.0 | 1.7 | 0.00 | 0.00 | 0.00 | 96 | 1007.3 |
| 20260506073053 | 76 | 82 | 0.0 | 1.7 | 0.00 | 0.00 | 0.00 | 95 | 1007.8 |
| 20260506071551 | 76 | 217 | 0.0 | 0.0 | 0.00 | 0.00 | 0.00 | 95 | 1007.9 |
| 20260506061550 | 76 | 142 | 0.0 | 3.5 | 0.00 | 0.00 | 0.00 | 95 | 1008.2 |
| 20260506044636 | 76 | 262 | 0.0 | 2.6 | 0.00 | 0.00 | 0.00 | 94 | 1008.2 |
| 20260506043042 | 76 | 162 | 0.0 | 1.7 | 0.00 | 0.00 | 0.00 | 93 | 1008.0 |
| 20260506041553 | 76 | 129 | 0.0 | 2.6 | 0.00 | 0.00 | 0.00 | 93 | 1008.0 |
| 20260506040041 | 77 | 117 | 0.0 | 1.7 | 0.00 | 0.00 | 0.00 | 93 | 1008.0 |
| 20260506034610 | 77 | 124 | 0.0 | 4.3 | 0.00 | 0.00 | 0.00 | 92 | 1007.8 |
| 20260506033040 | 77 | 208 | 0.0 | 3.5 | 0.00 | 0.00 | 0.00 | 91 | 1007.5 |
| 20260506031543 | 77 | 192 | 0.0 | 3.5 | 0.00 | 0.00 | 0.00 | 90 | 1007.4 |
| 20260506030040 | 77 | 179 | 0.0 | 1.7 | 0.00 | 0.00 | 0.00 | 90 | 1007.4 |
| 20260506024539 | 78 | 127 | 0.0 | 2.6 | 0.00 | 0.00 | 0.00 | 90 | 1007.3 |
| 20260506023100 | 78 | 161 | 0.0 | 1.7 | 0.00 | 0.00 | 0.00 | 90 | 1007.1 |
| 20260506021539 | 78 | 141 | 0.0 | 1.7 | 0.00 | 0.00 | 0.00 | 89 | 1006.8 |
| 20260506020042 | 78 | 297 | 0.0 | 4.3 | 0.00 | 0.00 | 0.00 | 89 | 1006.7 |
| 20260506014539 | 78 | 221 | 0.0 | 4.3 | 0.00 | 0.00 | 0.00 | 88 | 1006.4 |
| 20260506013040 | 79 | 167 | 0.0 | 4.3 | 0.00 | 0.00 | 0.00 | 87 | 1006.1 |
| 20260506011538 | 79 | 192 | 0.9 | 3.5 | 0.00 | 0.00 | 0.00 | 87 | 1005.9 |
| 20260506010043 | 79 | 232 | 0.0 | 3.5 | 0.00 | 0.00 | 0.00 | 85 | 1006.0 |
| 20260506004558 | 80 | 150 | 0.9 | 5.2 | 0.00 | 0.00 | 0.00 | 84 | 1005.7 |
| 20260506003045 | 80 | 240 | 0.0 | 4.3 | 0.00 | 0.00 | 0.00 | 83 | 1005.6 |
| 20260506001539 | 81 | 127 | 0.0 | 2.6 | 0.00 | 0.00 | 0.00 | 82 | 1005.5 |
| 20260506000035 | 81 | 238 | 0.0 | 5.2 | 0.00 | 0.00 | 0.00 | 81 | 1005.6 |
| 20260505234555 | 81 | 276 | 2.6 | 7.0 | 0.00 | 0.00 | 0.00 | 80 | 1005.4 |
| 20260505233039 | 82 | 140 | 1.7 | 7.0 | 0.00 | 0.00 | 0.00 | 81 | 1005.6 |
| 20260505231535 | 82 | 201 | 0.9 | 3.5 | 0.00 | 0.00 | 0.00 | 80 | 1005.4 |
| 20260505230040 | 82 | 93 | 1.7 | 6.1 | 0.00 | 0.00 | 0.00 | 80 | 1005.5 |
| 20260505224538 | 82 | 234 | 1.7 | 10.4 | 0.00 | 0.00 | 0.00 | 80 | 1005.5 |
| 20260505223034 | 83 | 149 | 1.7 | 7.0 | 0.00 | 0.00 | 0.00 | 79 | 1005.7 |
| 20260505221533 | 84 | 211 | 1.7 | 8.7 | 0.00 | 0.00 | 0.00 | 79 | 1005.6 |
| 20260505220043 | 83 | 250 | 1.7 | 9.6 | 0.00 | 0.00 | 0.00 | 79 | 1005.9 |
| 20260505214536 | 84 | 269 | 1.7 | 5.2 | 0.00 | 0.00 | 0.00 | 79 | 1005.9 |
| 20260505213028 | 84 | 239 | 1.7 | 9.6 | 0.00 | 0.00 | 0.00 | 79 | 1006.1 |
| 20260505211527 | 83 | 219 | 1.7 | 8.7 | 0.00 | 0.00 | 0.00 | 79 | 1006.3 |
| 20260505210025 | 83 | 178 | 1.7 | 7.0 | 0.00 | 0.00 | 0.00 | 79 | 1006.5 |
| 20260505204524 | 84 | 124 | 0.9 | 7.0 | 0.00 | 0.00 | 0.00 | 80 | 1006.8 |
| 20260505203021 | 84 | 217 | 0.0 | 6.1 | 0.00 | 0.00 | 0.00 | 80 | 1006.9 |
| 20260505201524 | 84 | 198 | 0.9 | 8.7 | 0.00 | 0.00 | 0.00 | 79 | 1007.1 |
| 20260505200021 | 85 | 220 | 1.7 | 7.0 | 0.00 | 0.00 | 0.00 | 78 | 1007.2 |
| 20260505194529 | 83 | 208 | 0.9 | 7.0 | 0.00 | 0.00 | 0.00 | 81 | 1007.3 |
| 20260505193033 | 83 | 162 | 0.9 | 6.1 | 0.00 | 0.00 | 0.00 | 79 | 1007.5 |
| 20260505191517 | 83 | 210 | 1.7 | 7.0 | 0.00 | 0.00 | 0.00 | 80 | 1007.6 |
| 20260505190015 | 83 | 185 | 1.7 | 7.8 | 0.00 | 0.00 | 0.00 | 80 | 1007.6 |
| 20260505184513 | 82 | 134 | 0.9 | 7.0 | 0.00 | 0.00 | 0.00 | 82 | 1007.8 |
| 20260505183014 | 82 | 248 | 0.9 | 7.0 | 0.00 | 0.00 | 0.00 | 82 | 1007.8 |
| 20260505181511 | 82 | 255 | 0.9 | 3.5 | 0.00 | 0.00 | 0.00 | 82 | 1008.0 |
| 20260505180010 | 82 | 179 | 1.7 | 6.1 | 0.00 | 0.00 | 0.00 | 81 | 1008.2 |
| 20260505174517 | 81 | 136 | 0.9 | 7.8 | 0.00 | 0.00 | 0.00 | 82 | 1008.3 |
| 20260505173006 | 81 | 215 | 0.9 | 4.3 | 0.00 | 0.00 | 0.00 | 84 | 1008.4 |
| 20260505171504 | 80 | 232 | 0.0 | 3.5 | 0.00 | 0.00 | 0.00 | 85 | 1008.4 |
| 20260505170006 | 79 | 230 | 0.9 | 6.1 | 0.00 | 0.00 | 0.00 | 86 | 1008.5 |
| 20260505164503 | 80 | 217 | 0.9 | 5.2 | 0.00 | 0.00 | 0.00 | 84 | 1008.5 |
| 20260505163003 | 80 | 241 | 1.7 | 7.8 | 0.00 | 0.00 | 0.00 | 84 | 1008.4 |
| 20260505161604 | 79 | 213 | 0.9 | 6.1 | 0.00 | 0.00 | 0.00 | 86 | 1008.3 |
| 20260505153059 | 78 | 257 | 0.0 | 6.1 | 0.00 | 0.00 | 0.00 | 88 | 1008.1 |
| 20260505151555 | 78 | 291 | 0.0 | 5.2 | 0.00 | 0.00 | 0.00 | 89 | 1008.1 |
| 20260505124538 | 72 | 227 | 0.0 | 3.5 | 0.00 | 0.00 | 0.00 | 96 | 1008.0 |
| 20260505123053 | 71 | 244 | 0.0 | 2.6 | 0.00 | 0.00 | 0.00 | 97 | 1007.8 |
| 20260505121534 | 70 | 269 | 0.0 | 0.9 | 0.00 | 0.00 | 0.00 | 97 | 1007.5 |
| 20260505120031 | 70 | 278 | 0.0 | 0.9 | 0.00 | 0.00 | 0.00 | 97 | 1007.1 |
| 20260505114529 | 70 | 95 | 0.0 | 0.0 | 0.00 | 0.00 | 0.00 | 97 | 1007.4 |